Content
SEND FEEDBACK

Daily
Averages
Monthly
Summary
United States of America

SIDNEY, IOWA


Home > North America > United States > Iowa
Elevation: 1125 feet     Latitude: 40 45N     Longitude: 095 39W

WEATHER
 
SELECT A DAY
Number of Records: 429,970;   Date Range: 2/11/95 - 12/19/14
 
SHARE

PRINT THIS DATA

[ ← Previous Day ]
WEATHER ALMANAC - JANUARY 31, 2013
[ Next Day → ]
[ °C ]   °F
Weather ElementAverageHighLow
Temperature11.2 °F19.4 °F (12:35 am)-0.4 °F (11:35 pm)
Dewpoint-1.2 °F12.2 °F (12:55 am)-9.4 °F (11:35 pm)
Humidity58 %74 % (12:55 am)45 % (3:35 pm)
Barometer30.20 in30.44 in (10:35 pm)29.95 in (12:35 am)
Wind Speed9.4 mph23 mph (11:15 am)
Wind Gust29.9 mph (11:35 am)
Weather ElementAverage
Visibility9.8 mi
Wind DirectionWNW (283.5 °)

Weather ElementTotal
Precipitation---
Heating Degree Days55.5 (Base 65)
Averaged from 69 records on January 31, 2013
WEATHER CONDITIONS BREAKOUT
WIND DIRECTION BREAKOUT
WEATHER BY HOUR - JANUARY 31, 2013
[ °C ]   °F
Local TimeTemperatureDewpointHumidityBarometerVisibilityWind DirectionWind SpeedGust SpeedPrecipitationEventsConditions
12:35 AM19.4 °F10.4 °F68 %29.95 in10.0 miWNW (290°)6.9 mphOvercast
12:55 AM19.4 °F12.2 °F74 %29.95 in10.0 miWSW (250°)5.8 mphOvercast
1:15 AM19.4 °F10.4 °F68 %29.95 in10.0 miWest (280°)5.8 mphOvercast
1:35 AM19.4 °F10.4 °F68 %29.95 in10.0 miNW (310°)4.6 mphOvercast
1:55 AM19.4 °F8.6 °F63 %29.95 in10.0 miNW (320°)8.1 mphOvercast
2:15 AM19.4 °F8.6 °F63 %29.96 in10.0 miNW (320°)8.1 mphOvercast
2:35 AM17.6 °F6.8 °F63 %29.97 in10.0 miNW (320°)9.2 mphOvercast
2:55 AM17.6 °F6.8 °F63 %29.98 in10.0 miNNW (340°)8.1 mphOvercast
3:15 AM17.6 °F6.8 °F63 %29.98 in10.0 miNNW (340°)8.1 mphOvercast
3:35 AM17.6 °F6.8 °F63 %29.98 in10.0 miNorth (350°)6.9 mphOvercast
3:55 AM15.8 °F6.8 °F68 %29.98 in10.0 miNorth (350°)4.6 mphOvercast
4:15 AM15.8 °F6.8 °F68 %29.98 in10.0 miNW (320°)6.9 mphOvercast
4:35 AM15.8 °F5.0 °F62 %29.99 in10.0 miNW (310°)4.6 mphOvercast
4:55 AM14.0 °F1.4 °F57 %30.01 in10.0 miNW (310°)9.2 mphMostly Cloudy
5:15 AM12.2 °F1.4 °F62 %30.01 in10.0 miNW (320°)10.4 mph19.6 mphMostly Cloudy
5:35 AM12.2 °F-0.4 °F57 %30.02 in10.0 miNW (320°)5.8 mphMostly Cloudy
5:55 AM12.2 °F-0.4 °F57 %30.03 in10.0 miNW (320°)9.2 mph17.3 mphScattered Clouds
6:15 AM10.4 °F-0.4 °F62 %30.05 in10.0 miNW (310°)8.1 mph16.1 mphScattered Clouds
6:35 AM10.4 °F-0.4 °F62 %30.05 in10.0 miWest (280°)3.5 mphMostly Cloudy
6:55 AM10.4 °F-0.4 °F62 %30.05 in10.0 miWNW (300°)5.8 mphScattered Clouds
7:15 AM10.4 °F-0.4 °F62 %30.06 in10.0 miNW (320°)5.8 mphScattered Clouds
7:35 AM10.4 °F-0.4 °F62 %30.07 in10.0 miNW (310°)6.9 mphScattered Clouds
7:55 AM10.4 °F-0.4 °F62 %30.08 in10.0 miNW (320°)6.9 mphScattered Clouds
8:15 AM10.4 °F-0.4 °F62 %30.10 in10.0 miNW (320°)6.9 mphClear
8:35 AM10.4 °F-0.4 °F62 %30.11 in10.0 miNW (320°)6.9 mphClear
8:55 AM10.4 °F-0.4 °F62 %30.12 in10.0 miNW (320°)10.4 mph16.1 mphClear
9:15 AM12.2 °F-2.2 °F53 %30.13 in10.0 miNNW (330°)15.0 mph21.9 mphClear
9:35 AM12.2 °F-2.2 °F53 %30.15 in10.0 miNNW (330°)15.0 mph21.9 mphClear
9:55 AM12.2 °F-2.2 °F53 %30.17 in10.0 miNNW (330°)16.1 mph24.2 mphClear
10:15 AM12.2 °F-2.2 °F53 %30.17 in10.0 miNNW (340°)17.3 mph26.5 mphClear
10:35 AM12.2 °F-2.2 °F53 %30.19 in10.0 miNNW (330°)16.1 mph25.3 mphClear
10:55 AM12.2 °F-0.4 °F57 %30.21 in10.0 miNNW (330°)18.4 mph27.6 mphClear
11:15 AM12.2 °F-0.4 °F57 %30.22 in5.0 miNNW (330°)23.0 mph28.8 mphHaze
11:35 AM12.2 °F-0.4 °F57 %30.24 in7.0 miNNW (340°)17.3 mph29.9 mphScattered Clouds
11:55 AM12.2 °F-0.4 °F57 %30.25 in7.0 miNNW (330°)21.9 mph27.6 mphScattered Clouds
12:15 PM12.2 °F-2.2 °F53 %30.25 in7.0 miNNW (330°)17.3 mph28.8 mphScattered Clouds
12:35 PM12.2 °F-0.4 °F57 %30.26 in10.0 miNW (320°)13.8 mph27.6 mphScattered Clouds
12:55 PM12.2 °F-2.2 °F53 %30.26 in10.0 miNNW (330°)16.1 mph25.3 mphScattered Clouds
1:15 PM12.2 °F-2.2 °F53 %30.27 in10.0 miNW (320°)18.4 mph21.9 mphScattered Clouds
1:35 PM12.2 °F-0.4 °F57 %30.28 in10.0 miNNW (330°)16.1 mph23.0 mphMostly Cloudy
1:55 PM12.2 °F-0.4 °F57 %30.28 in7.0 miNW (310°)19.6 mph25.3 mphMostly Cloudy
2:15 PM12.2 °F-2.2 °F53 %30.29 in10.0 miNNW (330°)15.0 mph25.3 mphScattered Clouds
2:35 PM12.2 °F-4.0 °F48 %30.29 in10.0 miNW (320°)16.1 mph25.3 mphScattered Clouds
2:55 PM12.2 °F-4.0 °F48 %30.29 in10.0 miNNW (330°)15.0 mph21.9 mphScattered Clouds
3:15 PM12.2 °F-2.2 °F53 %30.30 in10.0 miNW (310°)16.1 mph26.5 mphClear
3:35 PM12.2 °F-5.8 °F45 %30.31 in10.0 miNNW (330°)15.0 mph26.5 mphClear
3:55 PM12.2 °F-4.0 °F48 %30.32 in10.0 miNW (310°)15.0 mph25.3 mphScattered Clouds
4:15 PM12.2 °F-2.2 °F53 %30.32 in10.0 miNW (310°)16.1 mph24.2 mphScattered Clouds
4:35 PM12.2 °F-4.0 °F48 %30.33 in10.0 miNW (320°)13.8 mph25.3 mphScattered Clouds
4:55 PM12.2 °F-4.0 °F48 %30.34 in10.0 miNW (320°)12.7 mph18.4 mphClear
5:15 PM10.4 °F-5.8 °F48 %30.34 in10.0 miNNW (330°)12.7 mph21.9 mphClear
5:35 PM10.4 °F-5.8 °F48 %30.35 in10.0 miNW (320°)9.2 mphClear
6:15 PM8.6 °F-5.8 °F52 %30.36 in10.0 miNW (320°)5.8 mphScattered Clouds
6:35 PM8.6 °F-5.8 °F52 %30.37 in10.0 miNNW (330°)4.6 mphScattered Clouds
6:55 PM8.6 °F-5.8 °F52 %30.37 in10.0 miNNW (330°)5.8 mphScattered Clouds
7:15 PM6.8 °F-5.8 °F56 %30.38 in10.0 miNW (320°)6.9 mphScattered Clouds
7:35 PM6.8 °F-5.8 °F56 %30.39 in10.0 miWNW (290°)3.5 mphScattered Clouds
7:55 PM6.8 °F-5.8 °F56 %30.40 in10.0 miCalmScattered Clouds
8:15 PM5.0 °F-7.6 °F56 %30.40 in10.0 miCalmScattered Clouds
8:35 PM5.0 °F-7.6 °F56 %30.40 in10.0 miCalmScattered Clouds
8:55 PM3.2 °F-7.6 °F61 %30.40 in10.0 miNorth (360°)4.6 mphScattered Clouds
9:15 PM5.0 °F-7.6 °F56 %30.40 in10.0 miCalmScattered Clouds
9:35 PM3.2 °F-7.6 °F61 %30.42 in10.0 miCalmScattered Clouds
9:55 PM3.2 °F-7.6 °F61 %30.43 in10.0 miSW (230°)4.6 mphScattered Clouds
10:15 PM3.2 °F-7.6 °F61 %30.43 in10.0 miWest (280°)3.5 mphScattered Clouds
10:35 PM1.4 °F-7.6 °F66 %30.44 in10.0 miCalmScattered Clouds
10:55 PM3.2 °F-7.6 °F61 %30.44 in10.0 miSSW (200°)3.5 mphScattered Clouds
11:15 PM1.4 °F-7.6 °F66 %30.44 in10.0 miWest (270°)4.6 mphScattered Clouds
11:35 PM-0.4 °F-9.4 °F66 %30.44 in10.0 miCalmScattered Clouds
Hourly data recorded from KSDA, located miles away from Sidney, Iowa







STORIES FROM OUR PARTNERS